Stations météo

Publicité
Montauban, France (7540): Température de l'air & dewpoint: 10.07.2018 14:00:00 - 16.07.2018 14:00:00 (CEST)Montauban, France (7540): Température de l'air 5cm: 10.07.2018 14:00:00 - 16.07.2018 14:00:00 (CEST)Montauban, France (7540): Température de l'air -20cm & Température de l'air -100cm: 10.07.2018 14:00:00 - 16.07.2018 14:00:00 (CEST)Montauban, France (7540): Vitesse du vent & gusts: 10.07.2018 14:00:00 - 16.07.2018 14:00:00 (CEST)Montauban, France (7540): Direction du vent: 10.07.2018 14:00:00 - 16.07.2018 14:00:00 (CEST)Montauban, France (7540): reduced air pressure: 10.07.2018 14:00:00 - 16.07.2018 14:00:00 (CEST)Montauban, France (7540): visibility: 10.07.2018 14:00:00 - 16.07.2018 14:00:00 (CEST)Montauban, France (7540): Ensoleillement: 10.07.2018 14:00:00 - 16.07.2018 14:00:00 (CEST)Montauban, France (7540): Quantités de précipitations: 10.07.2018 14:00:00 - 16.07.2018 14:00:00 (CEST)
Date & Time tt [°C] td [°C] tt 5cm [°C] tt -20cm [°C] tt -100cm [°C] ff [km/h] ff [knt] fx [km/h] fx [knt] dd ppp [hPa] vv [km] sd [min] rr [mm]
16.07.2018 14:00:00 22,6 17,9 23,4 24,7 21,6 12 6 22 12 WNW 1016,0 20 7 0,2
16.07.2018 13:00:00 21,0 18,0 21,5 24,8 21,5 11 6 17 9 W 1016,2 20 0 0,0
16.07.2018 12:00:00 19,1 17,2 19,2 25,0 21,5 11 6 18 10 WSW 1016,2 20 0 0,0
16.07.2018 11:00:00 18,2 16,9 17,6 25,1 21,5 5 3 27 15 SW 1016,1 20 0 0,0
16.07.2018 10:00:00 18,1 16,8 17,4 25,2 21,5 3 1 14 7 NNE 1014,6 20 0 1,2
16.07.2018 09:00:00 17,9 16,8 16,5 25,4 21,5 6 3 24 13 WNW 1015,3 19 0 1,6
16.07.2018 08:00:00 17,4 15,7 16,5 25,5 21,5 18 10 54 29 W 1015,0 9 0 2,9
16.07.2018 07:00:00 17,4 15,4 16,2 25,7 21,5 10 5 31 17 ENE 1013,2 20 0 0,8
16.07.2018 06:00:00 18,3 15,9 17,1 25,8 21,5 16 8 39 21 WNW 1014,0 19 0 0,4
16.07.2018 05:00:00 21,6 19,0 20,6 25,9 21,5 18 10 36 19 WNW 1013,2 20 0 0,0
16.07.2018 04:00:00 22,4 18,0 20,7 26,0 21,5 10 6 19 11 WSW 1013,1 20 0 0,0
16.07.2018 03:00:00 22,5 16,1 20,9 26,1 21,5 8 4 16 9 SW 1014,0 20 0 0,0
16.07.2018 02:00:00 23,1 15,9 21,2 26,2 21,5 11 6 26 14 SSW 1014,1 20 0 0,0
16.07.2018 01:00:00 23,3 18,4 21,2 26,3 21,5 6 3 15 8 W 1013,6 20 0 0,0
16.07.2018 00:00:00 24,9 16,9 20,7 26,4 21,5 8 4 14 7 W 1013,2 20 0 0,0
15.07.2018 23:00:00 26,2 17,6 23,7 26,4 21,5 9 5 22 12 N 1012,8 20 0 0,0
15.07.2018 22:00:00 26,9 17,9 25,0 26,4 21,5 16 8 28 15 NW 1012,6 20 0 0,0
15.07.2018 21:00:00 29,3 13,5 27,5 26,3 21,5 10 5 19 10 NW 1012,1 20 0 0,0
15.07.2018 20:00:00 30,7 12,6 29,5 26,1 21,5 14 8 24 13 NW 1011,8 20 22 0,0
15.07.2018 19:00:00 31,8 12,6 32,0 25,9 21,4 14 8 22 12 NW 1011,7 20 26 0,0
15.07.2018 18:00:00 32,5 13,2 39,0 25,7 21,4 13 7 21 12 NW 1011,7 20 60 0,0
15.07.2018 17:00:00 33,1 12,1 41,3 25,4 21,4 6 3 16 8 N 1012,0 20 60 0,0
15.07.2018 16:00:00 32,5 12,7 40,7 25,2 21,4 6 3 21 11 NE 1012,5 20 60 0,0
15.07.2018 15:00:00 31,1 13,4 39,4 25,0 21,4 6 3 17 9 ESE 1013,2 20 60 0,0
15.07.2018 14:00:00 29,9 14,0 38,0 24,8 21,4 7 4 22 12 NNE 1014,2 20 60 0,0
15.07.2018 13:00:00 28,8 16,0 37,5 24,8 21,4 7 4 17 9 ENE 1014,5 20 60 0,0
15.07.2018 12:00:00 28,0 16,6 35,8 24,8 21,4 5 3 11 6 WNW 1015,1 20 60 0,0
15.07.2018 11:00:00 26,8 16,1 32,3 24,9 21,4 3 1 8 5 E 1015,2 20 60 0,0
15.07.2018 10:00:00 24,2 16,5 24,8 24,9 21,4 4 2 14 7 WSW 1015,6 20 42 0,0
15.07.2018 09:00:00 21,2 17,2 19,0 25,1 21,4 4 2 16 9 SE 1015,9 20 19 0,0
15.07.2018 08:00:00 18,9 16,1 16,2 25,3 21,4 11 6 17 9 E 1015,3 20 22 0,0
15.07.2018 07:00:00 17,6 15,6 14,7 25,4 21,4 3 2 6 4 E 1015,6 20 4 0,0
15.07.2018 06:00:00 18,7 15,6 14,9 25,5 21,4 2 1 15 8 SE 1015,4 19 0 0,0
15.07.2018 05:00:00 18,9 16,1 16,0 25,6 21,4 3 2 10 6 SE 1015,5 20 0 0,0
15.07.2018 04:00:00 20,5 16,3 17,9 25,7 21,4 5 3 23 12 SE 1015,4 20 0 0,0
15.07.2018 03:00:00 21,4 18,0 19,3 25,8 21,4 8 5 29 15 E 1015,2 20 0 0,6
15.07.2018 02:00:00 24,1 16,9 20,5 25,9 21,4 18 10 37 20 WSW 1016,2 20 0 0,0
15.07.2018 01:00:00 26,1 15,5 22,5 25,9 21,4 4 2 10 6 NE 1014,8 20 0 0,0
15.07.2018 00:00:00 26,6 15,3 22,0 26,0 21,4 3 2 15 8 NNE 1014,7 20 0 0,0
14.07.2018 23:00:00 28,1 15,4 24,0 25,9 21,4 9 5 18 10 N 1014,3 20 0 0,0
14.07.2018 22:00:00 29,1 14,9 24,8 25,9 21,3 5 3 9 5 W 1014,1 10 0 0,0
14.07.2018 21:00:00 31,0 13,7 28,6 25,8 21,4 7 4 16 8 NW 1013,6 20 50 0,0
14.07.2018 20:00:00 32,7 12,3 34,4 25,6 21,4 7 4 14 8 N 1013,6 20 60 0,0
14.07.2018 19:00:00 33,1 12,1 38,2 25,4 21,3 6 3 13 7 NNE 1013,6 20 60 0,0
14.07.2018 18:00:00 33,1 12,1 40,3 25,2 21,4 5 3 16 9 E 1013,9 18 60 0,0
14.07.2018 17:00:00 33,2 13,3 40,8 24,9 21,3 5 3 18 10 N 1014,4 20 60 0,0
14.07.2018 16:00:00 32,8 13,9 41,0 24,7 21,3 7 4 16 8 NE 1014,9 20 60 0,0
14.07.2018 15:00:00 31,2 13,0 40,2 24,4 21,3 6 3 16 9 E 1015,6 20 60 0,0
14.07.2018 14:00:00 30,1 15,4 37,8 24,3 21,3 7 4 16 9 NE 1016,1 20 60 0,0
14.07.2018 13:00:00 28,5 16,4 35,4 24,2 21,3 5 3 14 7 WSW 1016,6 20 60 0,0
14.07.2018 12:00:00 27,4 17,6 33,5 24,2 21,3 4 2 13 7 SE 1017,0 20 60 0,0
14.07.2018 11:00:00 25,0 18,7 28,5 24,3 21,3 3 2 13 7 SSE 1017,2 20 37 0,0
14.07.2018 10:00:00 22,9 18,9 23,0 24,3 21,3 4 2 16 9 SSE 1017,4 20 29 0,0
14.07.2018 09:00:00 20,7 18,3 19,0 24,5 21,3 5 3 8 4 ESE 1017,5 20 0 0,0
14.07.2018 08:00:00 19,7 18,0 18,4 24,6 21,3 6 3 27 14 W 1017,3 20 0 0,6
14.07.2018 07:00:00 20,4 17,2 18,7 24,7 21,3 5 3 16 9 ENE 1017,6 20 0 0,0
14.07.2018 06:00:00 20,0 17,4 17,8 24,8 21,3 5 3 9 5 WNW 1018,1 20 0 0,0
14.07.2018 05:00:00 19,5 17,1 16,4 24,9 21,3 2 1 6 4 SSE 1017,6 20 0 0,0
14.07.2018 04:00:00 19,5 16,3 18,0 25,0 21,3 5 3 16 9 SE 1017,5 20 0 0,0
14.07.2018 03:00:00 20,9 16,5 16,5 25,1 21,3 6 4 16 9 WSW 1018,2 20 0 0,0
14.07.2018 02:00:00 21,6 16,1 19,0 25,1 21,3 5 3 19 11 E 1017,7 20 0 0,0
14.07.2018 01:00:00 23,0 16,3 19,4 25,1 21,3 8 4 15 8 S 1018,8 20 0 0,0
14.07.2018 00:00:00 25,3 13,8 21,4 25,2 21,3 7 4 14 7 NNW 1017,7 20 0 0,0
13.07.2018 23:00:00 25,5 15,5 22,6 25,2 21,3 4 2 10 5 N 1017,5 20 0 0,0
13.07.2018 22:00:00 26,6 15,3 23,7 25,1 21,3 5 3 13 7 N 1016,6 18 0 0,0
13.07.2018 21:00:00 27,6 14,2 25,8 25,0 21,3 6 4 15 8 NNW 1016,0 20 0 0,0
13.07.2018 20:00:00 28,5 13,2 28,1 24,9 21,3 11 6 16 9 NW 1016,2 20 15 0,0
13.07.2018 19:00:00 29,4 12,8 31,1 24,7 21,3 4 2 13 7 N 1016,4 20 6 0,0
13.07.2018 18:00:00 29,6 12,5 32,8 24,5 21,3 5 3 21 11 NNE 1016,7 20 43 0,0
13.07.2018 17:00:00 30,1 13,0 38,1 24,2 21,3 6 4 19 10 NE 1016,8 20 60 0,0
13.07.2018 16:00:00 29,3 12,3 37,2 24,0 21,3 8 5 25 13 NNE 1017,4 18 60 0,0
13.07.2018 15:00:00 29,0 13,6 36,5 23,9 21,3 13 7 28 15 NW 1017,9 20 60 0,0
13.07.2018 14:00:00 29,0 13,2 34,2 23,7 21,3 5 3 19 10 NE 1017,8 20 60 0,0
13.07.2018 13:00:00 27,5 12,3 29,1 23,6 21,3 4 2 19 10 NE 1018,6 20 31 0,0
13.07.2018 12:00:00 26,6 14,0 30,0 23,6 21,3 10 5 17 9 NW 1019,4 20 51 0,0
13.07.2018 11:00:00 24,6 14,7 28,9 23,7 21,3 7 4 12 7 NW 1018,8 20 54 0,0
13.07.2018 10:00:00 23,2 13,9 25,0 23,8 21,3 4 2 13 7 WSW 1018,9 20 60 0,0
13.07.2018 09:00:00 20,1 14,7 20,1 23,9 21,3 4 2 8 4 NNW 1018,6 20 17 0,0
13.07.2018 08:00:00 18,2 13,9 16,2 24,0 21,3 4 2 5 3 ESE 1018,4 20 51 0,0
13.07.2018 07:00:00 16,8 13,5 12,4 24,2 21,3 0 0 4 2 N 1018,2 20 9 0,0
13.07.2018 06:00:00 16,2 13,3 12,3 24,3 21,3 2 1 3 2 SE 1018,3 20 0 0,0
13.07.2018 05:00:00 16,0 13,1 12,5 24,4 21,3 0 0 4 2 N 1018,0 20 0 0,0
13.07.2018 04:00:00 17,2 13,5 12,8 24,6 21,3 0 0 4 2 N 1017,9 20 0 0,0
13.07.2018 03:00:00 17,9 13,4 13,3 24,7 21,3 0 0 4 2 N 1017,8 20 0 0,0
13.07.2018 02:00:00 17,9 13,4 13,9 24,8 21,3 3 2 6 3 S 1017,9 20 0 0,0
13.07.2018 01:00:00 19,1 13,3 14,5 24,9 21,3 0 0 2 1 N 1017,9 20 0 0,0
13.07.2018 00:00:00 20,2 13,4 15,4 24,9 21,3 0 0 7 4 N 1017,6 20 0 0,0
12.07.2018 23:00:00 23,4 12,1 17,0 24,9 21,3 4 2 9 5 NW 1017,3 20 0 0,0
12.07.2018 22:00:00 25,2 11,7 21,9 24,8 21,3 6 4 15 8 NW 1016,6 20 12 0,0
12.07.2018 21:00:00 27,1 10,7 25,7 24,8 21,3 11 6 18 10 NNW 1016,1 20 60 0,0
12.07.2018 20:00:00 28,5 9,7 30,3 24,7 21,3 10 5 22 12 NNW 1015,9 20 60 0,0
12.07.2018 19:00:00 29,1 10,7 31,5 24,5 21,3 9 5 23 13 NNW 1015,6 20 56 0,0
12.07.2018 18:00:00 29,1 9,2 34,8 24,3 21,3 12 6 46 25 WNW 1015,6 20 60 0,0
12.07.2018 17:00:00 29,3 9,4 31,4 24,1 21,3 11 6 28 15 NW 1015,6 20 39 0,0
12.07.2018 16:00:00 28,7 10,4 33,0 23,9 21,3 18 10 32 17 NW 1015,7 20 51 0,0
12.07.2018 15:00:00 28,1 11,6 31,2 23,7 21,3 16 9 33 18 NW 1016,0 20 46 0,0
12.07.2018 14:00:00 27,6 12,4 31,3 23,6 21,3 14 8 28 15 NW 1016,1 20 53 0,0
12.07.2018 13:00:00 27,0 12,6 34,2 23,6 21,3 9 5 25 13 W 1016,2 20 60 0,0
12.07.2018 12:00:00 25,1 13,6 27,7 23,6 21,3 9 5 17 9 WNW 1016,4 20 55 0,0
12.07.2018 11:00:00 22,1 14,5 22,9 23,7 21,3 4 2 10 6 NW 1016,1 20 16 0,0
12.07.2018 10:00:00 20,5 13,5 21,7 23,8 21,3 3 2 9 5 WNW 1016,1 20 9 0,0
12.07.2018 09:00:00 19,1 13,5 18,9 23,9 21,3 2 1 6 3 S 1015,9 20 22 0,0
12.07.2018 08:00:00 17,8 13,1 14,9 24,0 21,3 3 2 7 4 WNW 1015,6 20 48 0,0
12.07.2018 07:00:00 15,3 12,4 12,4 24,2 21,3 4 2 6 3 S 1015,2 20 13 0,0
12.07.2018 06:00:00 15,2 12,1 11,9 24,3 21,3 2 1 8 5 SSE 1015,2 20 0 0,0
12.07.2018 05:00:00 16,6 12,7 11,7 24,4 21,3 4 2 6 3 NE 1014,7 20 0 0,0
12.07.2018 04:00:00 16,0 12,2 11,8 24,6 21,3 2 1 3 2 ESE 1014,8 20 0 0,0
12.07.2018 03:00:00 16,4 12,0 12,1 24,7 21,3 0 0 4 2 N 1014,6 20 0 0,0
12.07.2018 02:00:00 17,7 12,2 12,5 24,8 21,3 0 0 6 3 N 1014,7 20 0 0,0
12.07.2018 01:00:00 19,0 12,0 14,2 24,9 21,3 0 0 4 2 N 1014,7 20 0 0,0
12.07.2018 00:00:00 22,0 11,1 17,9 24,9 21,2 3 2 10 5 NNE 1014,9 20 0 0,0
11.07.2018 23:00:00 23,8 10,1 18,5 25,0 21,2 3 2 10 6 N 1014,7 20 0 0,0
11.07.2018 22:00:00 25,2 10,3 21,1 24,9 21,2 4 2 13 7 NNW 1014,6 20 12 0,0
11.07.2018 21:00:00 27,1 9,4 25,7 24,9 21,3 9 5 23 12 N 1013,9 20 60 0,0
11.07.2018 20:00:00 28,2 9,0 30,3 24,8 21,3 13 7 29 15 N 1013,7 20 60 0,0
11.07.2018 19:00:00 29,1 8,2 32,8 24,6 21,2 16 9 32 17 NNW 1014,0 20 60 0,0
11.07.2018 18:00:00 29,4 10,0 34,1 24,4 21,2 19 10 35 19 NW 1013,9 20 60 0,0
11.07.2018 17:00:00 29,6 10,7 35,5 24,2 21,2 18 10 33 18 NW 1014,1 20 60 0,0
11.07.2018 16:00:00 28,9 8,6 31,6 24,0 21,3 14 8 33 18 WNW 1014,4 20 56 0,0
11.07.2018 15:00:00 29,0 9,2 31,8 23,9 21,2 13 7 29 16 NNW 1014,8 20 57 0,0
11.07.2018 14:00:00 28,5 10,7 35,1 23,7 21,2 19 10 38 20 NW 1015,0 20 60 0,0
11.07.2018 13:00:00 27,6 9,4 28,6 23,7 21,2 17 9 34 18 NNW 1015,6 20 56 0,0
11.07.2018 12:00:00 26,8 11,3 31,2 23,6 21,2 15 8 27 15 NNW 1015,7 20 57 0,0
11.07.2018 11:00:00 25,0 13,5 31,0 23,7 21,2 8 5 21 12 NW 1016,0 20 60 0,0
11.07.2018 10:00:00 23,2 14,5 28,0 23,9 21,3 6 4 14 8 NNW 1016,5 20 60 0,0
11.07.2018 09:00:00 21,1 14,5 22,1 23,9 21,2 2 1 9 5 W 1016,9 20 60 0,0
11.07.2018 08:00:00 19,0 14,5 14,7 24,1 21,2 6 3 10 5 WNW 1016,7 20 60 0,0
11.07.2018 07:00:00 17,0 13,9 11,8 24,2 21,2 3 2 5 3 NW 1016,5 20 14 0,0
11.07.2018 06:00:00 17,0 13,3 12,0 24,4 21,2 3 2 5 3 WNW 1016,3 1,7 0 0,0
11.07.2018 05:00:00 18,3 13,6 12,9 24,5 21,2 4 2 6 4 WNW 1016,4 20 0 0,0
11.07.2018 04:00:00 19,3 13,7 12,9 24,6 21,2 5 3 8 4 NW 1016,2 20 0 0,0
11.07.2018 03:00:00 19,4 13,8 13,6 24,8 21,2 5 3 7 4 WNW 1016,5 20 0 0,0
11.07.2018 02:00:00 19,9 13,8 14,3 24,8 21,2 2 1 8 4 W 1016,6 20 0 0,0
11.07.2018 01:00:00 21,2 13,9 17,2 24,9 21,2 5 3 12 7 WNW 1016,7 20 0 0,0
11.07.2018 00:00:00 22,5 14,1 19,8 25,0 21,2 8 5 13 7 WNW 1016,7 20 0 0,0
10.07.2018 23:00:00 23,4 13,8 20,4 25,0 21,2 8 4 15 8 WNW 1016,5 20 0 0,0
10.07.2018 22:00:00 25,0 12,2 21,4 24,9 21,2 8 4 17 9 WNW 1016,0 20 13 0,0
10.07.2018 21:00:00 27,6 12,0 26,4 24,9 21,2 13 7 28 15 NW 1015,6 20 60 0,0
10.07.2018 20:00:00 28,8 12,2 30,4 24,8 21,2 19 10 33 18 NW 1015,3 20 60 0,0
10.07.2018 19:00:00 29,8 11,8 32,9 24,6 21,2 17 9 31 17 NW 1015,3 20 60 0,0
10.07.2018 18:00:00 30,2 11,7 35,1 24,4 21,2 16 8 34 19 NW 1015,6 20 60 0,0
10.07.2018 17:00:00 30,0 11,0 35,9 24,2 21,2 16 9 31 17 NNW 1015,8 20 60 0,0
10.07.2018 16:00:00 30,0 12,0 35,8 24,0 21,2 13 7 37 20 NW 1016,0 20 60 0,0
10.07.2018 15:00:00 29,2 11,7 35,3 23,9 21,2 18 10 35 19 NW 1016,4 20 60 0,0
10.07.2018 14:00:00 29,0 11,1 33,8 23,7 21,2 14 8 32 17 WNW 1016,6 20 58 0,0

tt = Température de l'air
td = dewpoint
tt 5cm = Température de l'air 5cm
tt -20cm = Température de l'air -20cm
tt -100cm = Température de l'air -100cm
ff = Vitesse du vent
fx = gusts
dd = Direction du vent
ppp = reduced air pressure
vv = visibility
sd = Ensoleillement
rr = Quantités de précipitations

stations d'obs. à proximité